Weather History for Naples, FL

Change the Weather History Date:

Monday, December 3, 2012

  Actual Average Record
Temperature  
Mean Temperature 72 °F 69 °F  
Max Temperature 83 °F 78 °F 88 °F (1982)
Min Temperature 60 °F 59 °F 44 °F (1969)
Degree Days  
Heating Degree Days 0 1  
Month to date heating degree days 0 3  
Since 1 July heating degree days 13 17  
Cooling Degree Days 7 5  
Month to date cooling degree days 21 15  
Year to date cooling degree days 3987 3834  
Growing Degree Days 22 (Base 50)    
Moisture  
Dew Point 60 °F    
Average Humidity 73    
Maximum Humidity 100    
Minimum Humidity 45    
Precipitation  
Precipitation 0.00 in 0.04 in 0.14 in (1981)
Month to date precipitation 0.00 0.12  
Year to date precipitation 36.15 50.56  
Snow  
Snow 0.00 in - - ()
Month to date snowfall 0.0  
Since 1 July snowfall 0.0  
Snow Depth 0.00 in    
Sea Level Pressure  
Sea Level Pressure 30.19 in    
Wind  
Wind Speed 7 mph (NE)    
Max Wind Speed 17 mph    
Max Gust Speed 24 mph    
Visibility 10 miles    
Events      
T = Trace of Precipitation, MM = Missing Value Source: NWS Daily Summary

Daily Weather History Graph

Daily Weather History Graph

Search for Another Location

Airport:

Trip Planner

Search our weather history database for the weather conditions in past years. The results will help you decide how hot, cold, wet, or windy it might be!

Date:

Astronomy

Dec. 03, 2012 Rise Set
Actual Time 6:59 AM EST 5:34 PM EST
Civil Twilight 6:34 AM EST 6:00 PM EST
Nautical Twilight 6:05 AM EST 6:28 PM EST
Astronomical Twilight 5:37 AM EST 6:56 PM EST
Moon 10:05 PM EST (12/3) 10:34 AM EST (12/3)
Length of Visible Light 11h 25m
Length of Day
10h 35m
Waning Gibbous, 78% of the Moon is Illuminated
Dec 3
Waning Gibbous
Dec 6
Last Quarter
Dec 13
New
Dec 20
First Quarter
Dec 28
Full

Hourly Weather History & Observations

Time (EST) Temp. Heat Index Dew Point Humidity Pressure Visibility Wind Dir Wind Speed Gust Speed Precip Events Conditions
12:53 AM 64.9 °F - 63.0 °F 93% 30.18 in 10.0 mi NE 5.8 mph - N/A   Clear
1:53 AM 64.9 °F - 64.0 °F 97% 30.18 in 10.0 mi NE 5.8 mph - N/A   Clear
2:53 AM 64.0 °F - 64.0 °F 100% 30.17 in 10.0 mi NE 5.8 mph - N/A   Clear
3:53 AM 64.0 °F - 63.0 °F 96% 30.17 in 10.0 mi NE 4.6 mph - N/A   Clear
4:53 AM 63.0 °F - 63.0 °F 100% 30.18 in 10.0 mi NE 3.5 mph - N/A   Clear
5:53 AM 63.0 °F - 62.1 °F 97% 30.18 in 10.0 mi NE 5.8 mph - N/A   Clear
6:53 AM 63.0 °F - 62.1 °F 97% 30.21 in 10.0 mi NE 5.8 mph - N/A   Clear
7:53 AM 64.9 °F - 63.0 °F 93% 30.23 in 9.0 mi NE 6.9 mph - N/A   Clear
8:53 AM 69.1 °F - 64.0 °F 84% 30.23 in 10.0 mi ENE 8.1 mph - N/A   Clear
9:53 AM 75.0 °F - 64.0 °F 69% 30.24 in 10.0 mi ENE 12.7 mph - N/A   Clear
10:53 AM 79.0 °F - 63.0 °F 58% 30.23 in 10.0 mi ENE 11.5 mph - N/A   Clear
11:53 AM 80.1 °F 80.4 °F 57.0 °F 45% 30.21 in 10.0 mi ENE 12.7 mph 19.6 mph N/A   Partly Cloudy
12:53 PM 81.0 °F 81.6 °F 60.1 °F 49% 30.18 in 10.0 mi NNE 10.4 mph 17.3 mph N/A   Scattered Clouds
1:53 PM 82.0 °F 82.1 °F 59.0 °F 45% 30.16 in 10.0 mi NE 8.1 mph - N/A   Scattered Clouds
2:53 PM 81.0 °F 81.3 °F 59.0 °F 47% 30.14 in 10.0 mi ENE 8.1 mph - N/A   Partly Cloudy
3:53 PM 79.0 °F - 57.9 °F 48% 30.14 in 10.0 mi ESE 4.6 mph - N/A   Mostly Cloudy
4:53 PM 73.9 °F - 64.9 °F 73% 30.15 in 10.0 mi West 4.6 mph - N/A   Overcast
5:53 PM 73.0 °F - 64.0 °F 73% 30.17 in 10.0 mi Calm Calm - N/A   Scattered Clouds
6:53 PM 69.1 °F - 55.0 °F 61% 30.18 in 10.0 mi NE 6.9 mph - N/A   Clear
7:53 PM 66.0 °F - 55.9 °F 70% 30.20 in 10.0 mi ENE 6.9 mph - N/A   Clear
8:53 PM 64.9 °F - 55.9 °F 73% 30.21 in 10.0 mi ENE 6.9 mph - N/A   Clear
9:53 PM 64.0 °F - 55.0 °F 73% 30.21 in 10.0 mi NE 4.6 mph - N/A   Clear
10:53 PM 62.1 °F - 55.0 °F 78% 30.21 in 10.0 mi ENE 3.5 mph - N/A   Clear
11:53 PM 61.0 °F - 55.0 °F 81% 30.20 in 10.0 mi NE 4.6 mph - N/A   Clear